Volver al catálogo

COSMOS 2613

ActivoMilitarSSO
NORAD 68763·PAYLOAD·🇷🇺 Russia

Lanzado Apr 16, 2026 desde Plesetsk Cosmodrome

Loading…

Próximos Pases (próximas 24 horas)

TLE

ActualizadoSource: Space-Track

Época: Sep 14, 2026, 17:30 UTC

1 68763U 26083J   26257.72951437  .00002033  00000-0  14450-3 0  9994
2 68763  97.7938  36.6431 0008469  57.2355 302.9686 15.05827091 22682

Sigue COSMOS 2613 en tiempo real con AllMySat

Download on the App Store